Regional Weather Roundup
Issued by NWS

Home | Current Version | Previous Version | Text Only | Print | Product List | Glossary Off
Versions: 1 2 3 4 5 6 7 8 9 10 11 12 13 14 15 16 17 18 19 20 21 22 23 24 25 26 27 28 29 30 31 32 33 34 35 36 37 38 39 40 41 42 43 44 45 46 47 48 49 50

000
ASUS43 KMPX 101310
RWRMN
WEATHER ROUNDUP FOR MINNESOTA
NATIONAL WEATHER SERVICE TWIN CITIES/CHANHASSEN MN
700 AM CST SAT DEC 10 2016


NOTE: "FAIR" INDICATES FEW OR NO CLOUDS BELOW 12,000 FEET WITH NO
SIGNIFICANT WEATHER AND/OR OBSTRUCTIONS TO VISIBILITY. N/A MEANS
CURRENT SKY AND/OR WEATHER CONDITIONS ARE NOT AVAILABLE.

MNZ060>063-068>070-101400-
   Twin Cities Metro

CITY           SKY/WX    TMP DP  RH WIND       PRES   REMARKS
TWIN CITIES    PTCLDY     4  -1  80 W6        30.51R WCI  -7
ST PAUL        CLEAR      5   0  79 W5        30.53R WCI  -4
CRYSTAL        CLEAR      3  -3  76 W5        30.50R WCI  -6
BLAINE         PTCLDY     5   1  85 W5        30.49R WCI  -4
LAKEVILLE      CLOUDY     1   0  92 W3        30.50S
EDEN PRAIRIE   CLOUDY     4  -2  76 SW3       30.50S
SOUTH ST PAUL  PTCLDY     5   0  80 W3        30.52R
LAKE ELMO      FAIR       5   1  85 CALM      30.51R
$$
MNZ001>005-007-008-013>017-022>024-027-028-101400-
   Northwest Minnesota

CITY           SKY/WX    TMP DP  RH WIND       PRES   REMARKS
BEMIDJI        CLOUDY   -12 -16  82 W5        30.42S WCI -24
HALLOCK        CLOUDY   -13 -18  77 CALM      30.49F
ROSEAU         PTCLDY   -11 -17  77 W3        30.46F
WARROAD        CLOUDY   -13 -18  77 SW3       30.45F
THIEF RVR FALL FLURRIES  -5  -9  83 N6        30.47F WCI -18
CROOKSTON      CLOUDY    -2  -8  78 NE3       30.51F
FOSSTON        CLOUDY   -17 -22  76 S6        30.46R WCI -31
DETROIT LAKES  CLOUDY   -13 -17  84 CALM      30.46S
MOORHEAD       CLOUDY    -8 -13  77 CALM      30.51F
PARK RAPIDS    CLOUDY   -16 -24  67 CALM      30.43S
$$
MNZ006-009>011-018-025>026-101400-
   North Central Minnesota

CITY           SKY/WX    TMP DP  RH WIND       PRES   REMARKS
BAUDETTE       CLOUDY   -12 -17  78 CALM      30.42F
FLAG ISLAND    CLOUDY    -8 -11  84 NW7       30.44R WCI -22
INTL FALLS     CLOUDY   -10 -14  82 CALM      30.42S
WASKISH        CLOUDY    -6  -8  92 NW7       30.43F WCI -20
BIG FORK       PTCLDY   -13 -18  77 CALM      30.41F
LONGVILLE      CLOUDY     0  -6  78 CALM      30.43R
GRAND RAPIDS   FLURRIES  -1  -7  75 NW7       30.43F WCI -14
CRANE LAKE     CLOUDY   -11 -15  84 CALM      30.45R
ORR            CLOUDY   -11 -17  77 CALM      30.38F
COOK           CLOUDY   -11 -15  84 CALM      30.41F
$$
MNZ012-019>021-037-101400-
   Northeast Minnesota

CITY           SKY/WX    TMP DP  RH WIND       PRES   REMARKS
DULUTH         FLURRIES   2  -3  80 N6        30.39F WCI  -9
ELY            CLEAR     -9 -13  84 CALM      30.39S
HIBBING        CLOUDY    -8 -12  83 CALM      30.41S
EVELETH        CLEAR     -3  -9  76 NW5       30.42S WCI -13
DULUTH HARBOR  PTCLDY     9  -2  61 CALM      30.49S
TWO HARBORS    CLEAR     -2  -9  71 CALM      30.42S
SILVER BAY     CLEAR     -2  -8  78 CALM      30.41S
GRAND MARAIS     N/A      5  -1  76 W5        30.44R WCI  -4
G MARAIS ARPRT PTCLDY    -2  -8  78 W6        30.29F WCI -14
$$
MNZ029>031-032-039>041-046>048-054>057-064-101400-
   West Central Minnesota

CITY           SKY/WX    TMP DP  RH WIND       PRES   REMARKS
FERGUS FALLS   CLOUDY   -11 -17  77 CALM      30.55F
WHEATON        CLOUDY    -6  -9  84 NW3       30.52F
MORRIS         CLOUDY    -8 -11  84 NW6       30.49R WCI -21
ALEXANDRIA     CLOUDY    -6 -10  83 W5        30.45S WCI -17
ELBOW LAKE     MOCLDY    -8 -12  84 NW5       30.48S WCI -20
WADENA         CLOUDY    -8 -11  84 W3        30.45R
GLENWOOD       CLOUDY    -9 -11  92 CALM      30.46R
APPLETON       CLOUDY    -2  -9  71 N7        30.49F WCI -16
BENSON         CLOUDY    -4  -9  77 N3        30.49S
ORTONVILLE     CLOUDY    -6 -11  77 CALM      30.48F
MADISON        CLOUDY     1  -6  71 CALM      30.49F
WILLMAR        FAIR       0  -4  85 CALM      30.49S
$$
MNZ033>034-036-042>043-049>051-058-059-101400-
   Central Minnesota

CITY           SKY/WX    TMP DP  RH WIND       PRES   REMARKS
ST CLOUD       CLEAR     -1  -6  79 W5        30.49S WCI -11
PAYNESVILLE    CLOUDY    -3  -6  87 CALM      30.48S
AITKIN         CLOUDY     5  -6  61 CALM      30.42S
PINE RIVER     CLOUDY     0  -4  85 CALM      30.45S
BRAINERD       CLOUDY     2  -4  76 N3        30.44S
LONG PRAIRIE   CLOUDY     0  -6  78 CALM      30.45F
LITTLE FALLS   CLEAR     -4  -8  84 CALM      30.48S
LITCHFIELD     CLOUDY     1  -2  85 CALM      30.49S
BUFFALO        PTCLDY     2  -2  83 W5        30.51S WCI  -8
MAPLE LAKE     CLOUDY     2  -1  86 CALM      30.50S
HUTCHINSON     CLOUDY     3   0  85 NW3       30.49F
$$
MNZ037-044-045-052-053-101400-
   East Central Minnesota

CITY           SKY/WX    TMP DP  RH WIND       PRES   REMARKS
PRINCETON      CLEAR      0  -4  85 W3        30.47F
MORA           CLEAR      1  -4  78 CALM      30.48S
CAMBRIDGE      CLEAR      3  -6  66 W3        30.46F
RUSH CITY      PTCLDY     3   0  85 W5        30.48R WCI  -6
MOOSE LAKE     CLOUDY     5  -4  66 NW3       30.43S
HINCKLEY       CLOUDY     9   1  72 NW3       30.46R
CLOQUET        CLOUDY     1  -6  71 NW7       30.42R WCI -11
MCGREGOR       CLOUDY     3  -2  78 CALM      30.44R
$$
MNZ071>073-080-081-089-090-097-098-101400-
   Southwest Minnesota

CITY           SKY/WX    TMP DP  RH WIND       PRES   REMARKS
MONTEVIDEO     CLOUDY     0  -6  78 NE3       30.50F
GRANITE FALLS  PTCLDY     2  -3  79 N3        30.50F
CANBY          CLOUDY     1  -3  83 CALM      30.48F
MARSHALL       CLOUDY     1  -3  83 N3        30.47F
REDWOOD FALLS  PTCLDY     2  -4  76 N3        30.49F
OLIVIA         PTCLDY     3   0  85 NW3       30.49S
PIPESTONE      LGT SNOW   7   1  78 E8        30.36F WCI  -6
WINDOM         CLOUDY     5   1  85 MISG      30.44S
WORTHINGTON    FLURRIES   6   2  83 NE8       30.41F WCI  -7
JACKSON        FLURRIES   7   1  78 E3        30.44S
TRACY          CLOUDY     4   1  88 NE5       30.45F WCI  -5
SLAYTON        CLOUDY     4   1  88 NE3       30.43R
$$
MNZ065>067-074>077-082>085-091>093-101400-
   South Central Minnesota

CITY           SKY/WX    TMP DP  RH WIND       PRES   REMARKS
MANKATO        CLOUDY     2  -2  83 N7        30.49F WCI -11
NEW ULM          N/A      1  -2  85 CALM      30.49F
ST JAMES       CLOUDY     5   0  78 N6        30.49F WCI  -6
FAIRMONT       FLURRIES   7   2  80 NE6       30.47F WCI  -3
GLENCOE        CLOUDY     4   1  88 W3        30.50S
FARIBAULT      CLOUDY     3   0  85 N3        30.48F
OWATONNA       MOCLDY     5   0  78 NW5       30.47F WCI  -4
WASECA         CLOUDY     5   1  85 CALM      30.48F
ALBERT LEA     CLOUDY     9   3  78 N3        30.46S
$$
MNZ078>079-086>088-094>096-101400-
   Southeast Minnesota

CITY           SKY/WX    TMP DP  RH WIND       PRES   REMARKS
ROCHESTER      CLOUDY     3   1  91 NW7       30.46S WCI  -9
RED WING       FLURRIES   7   1  78 CALM      30.51R
STANTON        PTCLDY     5   0  80 W5        30.50S WCI  -4
DODGE CENTER   PTCLDY     3   0  85 NW6       30.45F WCI  -8
WINONA           N/A     10   5  79 W6        30.53R WCI   1
AUSTIN         CLOUDY     7   1  78 N5        30.46S WCI  -2
PRESTON        CLOUDY     6   2  84 N7        30.46F WCI  -6
$$
ABBREVIATIONS USED IN REMARKS
   TC - TEMPERATURES IN CELSIUS
  WCI - WIND CHILL INDEX
   HX - HEAT INDEX
  VSB - VISIBILITY
$$



USA.gov is the U.S. government's official web portal to all federal, state and local government web resources and services.